Date,TemperatureHighF,TemperatureAvgF,TemperatureLowF,DewpointHighF,DewpointAvgF,DewpointLowF,HumidityHigh,HumidityAvg,HumidityLow,PressureMaxIn,PressureMinIn,WindSpeedMaxMPH,WindSpeedAvgMPH,GustSpeedMaxMPH,PrecipitationSumIn
2013-3-1,43.9,37.9,33.3,29.7,25.0,19.6,74,60,50,29.99,29.82,11,4,11,0.00
2013-3-2,41.5,33.8,29.5,20.0,17.5,15.8,63,51,39,29.98,29.91,9,4,9,0.00
2013-3-3,35.8,31.4,26.1,17.7,14.4,10.0,59,50,36,29.98,29.90,11,5,11,0.00
2013-3-4,42.3,31.9,26.2,17.7,13.7,8.9,56,47,34,30.14,29.98,22,7,22,0.00
2013-3-5,55.6,37.8,27.5,23.8,18.9,12.8,64,48,26,30.19,30.06,9,3,9,0.00
2013-3-6,37.4,35.3,33.1,32.4,28.6,21.9,85,76,63,30.06,29.88,21,7,21,0.14
2013-3-12,57.7,49.7,40.5,57.5,46.2,31.0,99,88,66,30.14,29.87,18,6,18,1.29
2013-3-13,51.6,40.7,29.5,35.5,26.1,14.4,87,58,30,30.13,30.02,11,4,11,0.01
2013-3-14,44.1,35.0,28.0,16.5,11.7,6.3,59,40,23,30.18,30.11,21,8,21,0.00
2013-3-15,54.0,38.5,23.7,30.2,19.2,7.2,69,46,29,30.18,29.91,12,4,12,0.00
2013-3-16,43.0,36.5,32.0,31.5,29.5,25.5,95,77,58,30.08,29.88,8,2,8,0.07
2013-3-17,43.0,33.6,27.5,31.0,23.2,15.3,95,68,40,30.42,30.07,7,1,7,0.01
2013-3-18,36.3,31.9,27.3,33.2,21.5,10.2,99,68,40,30.48,30.02,13,5,13,0.31
2013-3-19,56.8,43.1,33.6,41.3,28.5,11.4,99,62,24,30.04,29.86,15,5,15,0.20
2013-3-20,51.8,39.2,27.3,20.8,15.3,9.5,61,39,22,30.08,29.93,17,5,17,0.00
2013-3-21,41.0,32.8,26.2,26.9,13.0,-1.1,86,47,21,29.97,29.85,17,4,17,0.00
2013-3-22,46.8,32.9,24.8,24.7,16.0,7.8,70,50,28,30.10,29.94,15,5,15,0.00
2013-3-23,51.4,38.4,28.9,21.5,18.0,13.3,62,45,26,30.12,30.05,17,5,17,0.00
2013-3-24,49.5,37.1,22.8,25.1,18.2,12.9,74,49,27,30.13,29.82,14,2,14,0.00
2013-3-25,38.5,34.8,31.6,33.9,29.0,21.5,96,80,56,29.83,29.64,12,2,12,0.60
2013-3-26,57.4,40.6,32.5,34.0,30.4,20.5,96,72,28,29.98,29.81,13,4,13,0.01